{"data":{"norad_id":56375,"intl_designator":"2023-061B","name":"STARLINK-6158","alt_names":[],"object_type":"PAYLOAD","status":"ACTIVE","operator":null,"country":"US","launch_date":"2023-05-04","launch_site_code":"AFETR","launch_vehicle":null,"mission":null,"orbit_class":"UNKNOWN","rcs_meters":null,"size_class":null,"mass_kg":null,"dimensions":null,"purposes":["comms"],"wikipedia_slug":null,"has_3d_model":false,"image_url":null,"decayed_at":null,"tle_current":{"epoch":"2026-05-24T22:36:39.517920Z","epoch_age_seconds":77183,"freshness":"FRESH","line1":"1 56375U 23061B   26144.94212405  .00000448  00000+0  25796-4 0  9990","line2":"2 56375  43.0037 127.0786 0001743 278.6462  81.4192 15.27578851168410","mean_motion":15.27578851,"eccentricity":0.0001743,"inclination_deg":43.0037,"raan_deg":127.0786,"arg_perigee_deg":278.6462,"mean_anomaly_deg":81.4192,"bstar":2.5796e-5,"rev_number":16841,"period_min":94.266819618335,"perigee_km":481.85663122494,"apogee_km":484.24844189738,"semimajor_km":6861.1895365612,"source":"CELESTRAK","updated_at":"2026-05-25T13:38:18.010323Z"}}}